TimeEST,TemperatureF,Dew PointF,Humidity,Sea Level PressureIn,VisibilityMPH,Wind Direction,Wind SpeedMPH,Gust SpeedMPH,PrecipitationIn,Events,Conditions,WindDirDegrees,DateUTC
12:53 AM,66.9,61.0,81,30.09,10.0,North,10.4,-,N/A,,Partly Cloudy,350,2012-11-19 05:53:00
1:53 AM,66.0,60.1,81,30.08,10.0,NNW,9.2,-,N/A,,Clear,340,2012-11-19 06:53:00
2:53 AM,64.0,59.0,84,30.08,10.0,NNW,10.4,-,N/A,,Clear,340,2012-11-19 07:53:00
3:53 AM,62.1,59.0,90,30.09,10.0,NW,8.1,-,N/A,,Clear,320,2012-11-19 08:53:00
4:53 AM,60.1,57.9,93,30.09,10.0,NW,6.9,-,N/A,,Partly Cloudy,320,2012-11-19 09:53:00
5:53 AM,59.0,57.0,93,30.10,10.0,NW,6.9,-,N/A,,Partly Cloudy,320,2012-11-19 10:53:00
6:53 AM,57.9,55.9,93,30.11,10.0,NW,4.6,-,N/A,,Partly Cloudy,320,2012-11-19 11:53:00
7:47 AM,60.8,57.2,88,30.11,10.0,NW,9.2,-,N/A,,Scattered Clouds,320,2012-11-19 12:47:00
7:53 AM,60.1,57.0,90,30.11,10.0,NNW,10.4,-,N/A,,Scattered Clouds,330,2012-11-19 12:53:00
8:53 AM,64.0,57.9,80,30.12,10.0,NNW,10.4,-,N/A,,Scattered Clouds,330,2012-11-19 13:53:00
9:53 AM,66.9,57.9,73,30.12,10.0,NW,12.7,-,N/A,,Scattered Clouds,320,2012-11-19 14:53:00
10:53 AM,68.0,57.9,70,30.10,10.0,NW,11.5,16.1,N/A,,Scattered Clouds,310,2012-11-19 15:53:00
11:53 AM,70.0,57.9,65,30.09,10.0,NW,10.4,-,N/A,,Scattered Clouds,320,2012-11-19 16:53:00
12:53 PM,72.0,57.9,61,30.06,10.0,NW,13.8,-,N/A,,Scattered Clouds,310,2012-11-19 17:53:00
1:53 PM,69.1,57.0,65,30.03,10.0,NNW,11.5,-,N/A,,Scattered Clouds,340,2012-11-19 18:53:00
2:13 PM,69.8,57.2,64,30.03,10.0,NNW,11.5,-,N/A,,Mostly Cloudy,330,2012-11-19 19:13:00
2:53 PM,66.9,57.9,73,30.03,10.0,NW,10.4,-,N/A,,Mostly Cloudy,310,2012-11-19 19:53:00
3:53 PM,66.9,57.9,73,30.03,10.0,North,9.2,19.6,N/A,,Overcast,350,2012-11-19 20:53:00
4:53 PM,64.9,57.9,78,30.04,10.0,NNW,11.5,-,N/A,,Overcast,330,2012-11-19 21:53:00
5:53 PM,64.0,57.0,78,30.03,10.0,NW,9.2,-,N/A,,Overcast,320,2012-11-19 22:53:00
6:53 PM,64.0,57.0,78,30.04,10.0,NW,9.2,-,N/A,,Overcast,320,2012-11-19 23:53:00
7:37 PM,62.6,57.2,82,30.05,10.0,NNW,10.4,-,N/A,,Overcast,330,2012-11-20 00:37:00
7:53 PM,63.0,57.0,81,30.06,10.0,NW,10.4,-,N/A,,Overcast,320,2012-11-20 00:53:00
8:53 PM,62.1,57.0,84,30.06,10.0,NW,11.5,-,N/A,,Overcast,320,2012-11-20 01:53:00
9:53 PM,62.1,57.0,84,30.05,10.0,WNW,10.4,-,N/A,,Overcast,300,2012-11-20 02:53:00
10:40 PM,60.8,57.2,88,30.04,10.0,NW,10.4,-,N/A,,Mostly Cloudy,310,2012-11-20 03:40:00
10:53 PM,60.1,57.0,90,30.04,10.0,NW,10.4,-,N/A,,Mostly Cloudy,310,2012-11-20 03:53:00
11:14 PM,60.8,57.2,88,30.03,10.0,NW,9.2,-,N/A,,Overcast,310,2012-11-20 04:14:00
11:53 PM,61.0,57.0,87,30.03,10.0,NW,11.5,-,N/A,,Overcast,320,2012-11-20 04:53:00